Location: Laterina
(43.5167°N, 11.7167°E)
Time: 11:16:01
(UTC+00:00)

NOSS 3-2 (A) - Visible Passes

Search period start: 16 January 2021 00:00
Search period end: 26 January 2021 00:00
Orbit: 791 x 1417 km, 63.4° (Epoch: 20 December)

Date Brightness Start Highest point End Pass type
(mag) Time Alt. Az. Time Alt. Az. Time Alt. Az.
16 Jan 5.5 05:56:57 10° S 06:01:45 30° ESE 06:07:02 10° NE visible
16 Jan 6.9 17:08:44 10° WNW 17:14:16 21° WSW 17:20:07 10° SSW visible
17 Jan 6.3 05:13:15 10° SSE 05:16:49 17° ESE 05:20:37 10° ENE visible
19 Jan 4.8 05:30:58 10° S 05:36:06 40° ESE 05:41:53 10° NE visible
19 Jan 7.1 16:44:09 10° WNW 16:48:36 16° WSW 16:53:13 10° SW visible
20 Jan 5.7 04:46:45 10° SSE 04:51:06 24° ESE 04:55:48 10° ENE visible
21 Jan 6.2 04:03:45 10° SE 04:06:13 13° ESE 04:08:48 10° ENE visible
21 Jan 3.4 05:50:11 10° SSW 05:55:47 87° SE 06:02:13 10° NE visible
22 Jan 4.1 05:05:08 10° SSW 05:10:30 53° ESE 05:16:37 10° NE visible
23 Jan 5.0 04:20:35 10° S 04:25:25 31° ESE 04:30:46 10° NE visible
24 Jan 5.8 03:36:47 10° SSE 03:40:28 18° ESE 03:44:24 10° ENE visible
24 Jan 3.3 05:24:43 10° SW 05:30:20 74° NW 05:36:49 10° NE visible
25 Jan 3.6 04:39:26 10° SSW 04:44:58 70° ESE 04:51:18 10° NE visible
